TimeEDT,TemperatureF,Dew PointF,Humidity,Sea Level PressureIn,VisibilityMPH,Wind Direction,Wind SpeedMPH,Gust SpeedMPH,PrecipitationIn,Events,Conditions,WindDirDegrees,DateUTC
12:56 AM,63.0,53.1,70,30.04,10.0,Calm,Calm,-,N/A,,Mostly Cloudy,0,2013-03-18 04:56:00
1:56 AM,62.1,54.0,75,30.03,10.0,SW,3.5,-,N/A,,Overcast,230,2013-03-18 05:56:00
2:56 AM,60.1,55.0,83,30.02,10.0,WSW,5.8,-,0.00,,Overcast,240,2013-03-18 06:56:00
3:56 AM,60.1,55.0,83,30.03,10.0,West,6.9,-,0.02,Rain,Light Rain,270,2013-03-18 07:56:00
4:56 AM,57.9,55.0,90,30.02,8.0,WSW,5.8,-,0.03,Rain,Light Rain,240,2013-03-18 08:56:00
5:56 AM,59.0,55.9,90,30.04,10.0,NNW,6.9,-,0.01,,Overcast,330,2013-03-18 09:56:00
6:56 AM,57.9,55.9,93,30.06,10.0,Calm,Calm,-,0.01,,Overcast,0,2013-03-18 10:56:00
7:56 AM,57.9,55.9,93,30.07,6.0,Calm,Calm,-,0.01,Rain,Light Rain,0,2013-03-18 11:56:00
8:56 AM,60.1,57.0,90,30.08,7.0,South,4.6,-,0.00,,Overcast,180,2013-03-18 12:56:00
9:56 AM,61.0,57.0,87,30.09,5.0,Calm,Calm,-,N/A,,Overcast,0,2013-03-18 13:56:00
10:56 AM,61.0,57.0,87,30.07,4.0,SE,6.9,-,0.01,Rain,Light Rain,130,2013-03-18 14:56:00
11:37 AM,64.4,59.0,83,30.06,10.0,ESE,4.6,-,0.00,,Overcast,120,2013-03-18 15:37:00
11:56 AM,64.0,57.9,80,30.05,5.0,East,4.6,-,0.00,,Overcast,80,2013-03-18 15:56:00
12:56 PM,66.0,57.9,75,30.03,10.0,ESE,6.9,-,N/A,,Mostly Cloudy,120,2013-03-18 16:56:00
1:56 PM,66.9,57.0,70,30.01,6.0,South,5.8,-,N/A,,Haze,170,2013-03-18 17:56:00
2:56 PM,66.0,55.9,70,29.98,10.0,SE,6.9,-,N/A,,Mostly Cloudy,140,2013-03-18 18:56:00
3:46 PM,64.4,57.2,77,29.95,10.0,ESE,8.1,-,N/A,,Overcast,120,2013-03-18 19:46:00
3:56 PM,66.0,57.0,73,29.94,10.0,SE,10.4,-,N/A,,Scattered Clouds,130,2013-03-18 19:56:00
4:56 PM,64.9,57.9,78,29.93,10.0,SE,11.5,-,N/A,,Overcast,130,2013-03-18 20:56:00
5:56 PM,64.9,57.9,78,29.93,10.0,SSE,10.4,-,N/A,,Clear,150,2013-03-18 21:56:00
6:56 PM,64.0,57.9,80,29.91,10.0,SE,9.2,-,N/A,,Partly Cloudy,140,2013-03-18 22:56:00
7:56 PM,61.0,57.0,87,29.90,10.0,East,3.5,-,N/A,,Partly Cloudy,100,2013-03-18 23:56:00
8:56 PM,59.0,57.0,93,29.88,7.0,ESE,3.5,-,N/A,,Partly Cloudy,110,2013-03-19 00:56:00
9:56 PM,61.0,57.9,90,29.87,8.0,South,4.6,-,N/A,,Mostly Cloudy,170,2013-03-19 01:56:00
10:42 PM,64.4,60.8,88,29.87,10.0,South,10.4,-,N/A,Thunderstorm,Thunderstorm,180,2013-03-19 02:42:00
10:56 PM,61.0,57.9,90,29.97,1.0,WNW,24.2,34.5,0.32,Rain-Thunderstorm,Heavy Thunderstorms and Rain,290,2013-03-19 02:56:00
10:59 PM,59.0,55.4,88,29.97,0.8,West,19.6,34.5,0.12,Rain-Thunderstorm,Heavy Thunderstorms and Rain,280,2013-03-19 02:59:00
11:04 PM,57.2,55.4,94,29.96,1.0,WNW,13.8,34.5,0.15,Rain-Thunderstorm,Thunderstorms and Rain,290,2013-03-19 03:04:00
11:07 PM,57.2,55.4,94,29.97,2.0,WNW,15.0,26.5,0.16,Rain-Thunderstorm,Thunderstorms and Rain,300,2013-03-19 03:07:00
11:15 PM,57.2,55.4,94,29.97,5.0,WNW,15.0,23.0,0.19,Rain-Thunderstorm,Thunderstorms and Rain,300,2013-03-19 03:15:00
11:56 PM,57.9,55.0,90,29.96,10.0,North,6.9,-,0.28,Rain,Light Rain,360,2013-03-19 03:56:00